EW1423 Weather Reports


Display with metric or nautical units.
time (UTC)temp
F
wind
direction
speed
MPH
gust
MPH
rain 1hr
in
rain 24hr
in
rain mn
in
humidity
%
barometer
mb
20260906001804 51 304 0.0 0.0 0.00 0.53 0.00 97 1026.7
20260906001303 51 304 0.0 0.0 0.00 0.53 0.00 97 1026.7
20260906000803 51 304 0.0 0.0 0.00 0.53 0.00 97 1026.7
20260906000304 51 304 0.0 0.0 0.00 0.53 0.00 96 1026.7
20260905235804 52 304 0.0 0.0 0.00 0.53 0.00 97 1026.7
20260905235306 52 304 0.0 0.0 0.00 0.53 0.00 96 1026.7
20260905234803 52 304 0.0 0.0 0.00 0.53 0.00 96 1026.7
20260905234304 52 304 0.0 0.0 0.00 0.53 0.00 96 1026.7
20260905233804 52 304 0.0 0.0 0.00 0.53 0.00 96 1026.7
20260905233304 52 304 0.0 0.0 0.00 0.53 0.00 96 1026.7
20260905232804 52 304 0.0 0.0 0.00 0.53 0.00 96 1026.7
20260905231803 53 304 0.0 0.0 0.00 0.53 0.00 96 1026.7
20260905231303 53 304 0.0 0.0 0.00 0.53 0.00 95 1026.7
20260905230803 53 304 0.0 0.0 0.00 0.53 0.00 95 1026.7
20260905225804 53 304 0.0 0.0 0.00 0.53 0.00 95 1026.5
20260905225306 53 304 0.0 0.0 0.00 0.53 0.00 95 1026.5
20260905224804 53 304 0.0 0.0 0.00 0.53 0.00 94 1026.3
20260905224304 53 304 0.0 0.0 0.00 0.53 0.00 92 1026.3
20260905223803 53 304 0.0 0.0 0.00 0.53 0.00 92 1026.3
20260905223303 53 304 0.0 0.0 0.00 0.53 0.00 91 1026.3
20260905222804 53 304 0.0 0.0 0.00 0.53 0.00 93 1026.2
20260905222306 53 304 0.0 0.0 0.00 0.53 0.00 93 1026.2
20260905221804 54 304 0.0 0.0 0.00 0.53 0.00 93 1026.2
20260905221303 54 304 0.0 0.0 0.00 0.53 0.00 93 1025.9
20260905220810 54 304 0.0 0.0 0.00 0.53 0.00 93 1025.9
20260905220304 54 304 0.0 0.0 0.00 0.53 0.00 93 1025.9
20260905215804 54 304 0.0 0.0 0.00 0.53 0.53 93 1025.9
20260905215306 55 304 0.0 0.0 0.00 0.53 0.53 93 1025.9
20260905214303 55 304 0.0 0.0 0.00 0.53 0.53 91 1025.9
20260905213804 55 304 0.0 0.0 0.00 0.53 0.53 91 1025.9
20260905213304 55 304 0.0 0.0 0.00 0.53 0.53 91 1025.8
20260905212803 55 304 0.0 0.0 0.00 0.53 0.53 91 1025.7
20260905212306 55 304 0.0 0.0 0.00 0.53 0.53 91 1025.5
20260905211804 55 304 0.0 0.0 0.00 0.53 0.53 90 1025.5
20260905210304 56 304 0.0 0.0 0.00 0.53 0.53 89 1025.5
20260905205804 56 304 0.0 0.0 0.00 0.53 0.53 88 1025.5
20260905205306 56 304 0.0 0.0 0.00 0.53 0.53 88 1025.5
20260905204304 57 304 0.0 0.0 0.00 0.53 0.53 86 1025.3
20260905203803 57 304 0.0 0.0 0.00 0.53 0.53 87 1025.3
20260905203303 57 304 0.0 0.0 0.00 0.53 0.53 86 1025.3
20260905202803 57 304 0.0 0.0 0.00 0.53 0.53 86 1025.3
20260905202306 57 304 0.0 0.0 0.00 0.53 0.53 87 1025.1
20260905201803 57 304 0.0 0.0 0.00 0.53 0.53 86 1025.1
20260905201303 58 304 0.0 0.0 0.00 0.53 0.53 85 1025.1
20260905200803 58 304 0.0 0.0 0.00 0.53 0.53 85 1025.1
20260905200304 58 304 0.0 0.0 0.00 0.53 0.53 85 1025.1
20260905195804 59 304 0.0 0.0 0.00 0.53 0.53 85 1025.1
20260905195306 59 304 0.0 0.0 0.00 0.53 0.53 84 1024.9
20260905194804 59 304 0.0 0.0 0.00 0.53 0.53 84 1024.9
20260905194303 59 304 0.0 0.0 0.00 0.53 0.53 82 1024.9
20260905193804 60 304 0.0 0.0 0.00 0.53 0.53 81 1024.9
20260905193304 60 304 0.0 0.0 0.00 0.53 0.53 82 1024.6
20260905192306 61 304 0.0 0.0 0.00 0.53 0.53 80 1024.6
20260905191804 61 304 0.0 0.0 0.00 0.53 0.53 79 1024.6
20260905191304 62 304 0.0 0.0 0.00 0.53 0.53 78 1024.6
20260905190803 62 304 0.0 0.0 0.00 0.53 0.53 76 1024.6
20260905190303 62 304 0.0 0.0 0.00 0.53 0.53 75 1024.6
20260905185804 63 304 0.0 0.0 0.00 0.53 0.53 74 1024.2
20260905185306 63 304 0.0 0.0 0.00 0.53 0.53 73 1024.2
20260905184804 64 304 0.0 0.0 0.00 0.53 0.53 72 1024.2
20260905184304 64 304 0.0 0.0 0.00 0.53 0.53 73 1024.2
20260905183804 64 304 0.0 0.0 0.00 0.53 0.53 70 1024.2
20260905183304 65 304 0.0 0.0 0.00 0.53 0.53 70 1024.2
20260905182804 65 304 0.0 0.0 0.00 0.53 0.53 66 1023.7
20260905182305 66 304 0.0 0.0 0.00 0.53 0.53 64 1023.7
20260905181304 68 304 0.0 0.0 0.00 0.53 0.53 61 1023.7
20260905180804 69 304 0.0 0.0 0.00 0.53 0.53 57 1023.7
20260905180303 70 304 0.0 0.0 0.00 0.53 0.53 55 1023.7
20260905175306 71 305 0.0 0.0 0.00 0.53 0.53 53 1023.7
20260905174803 72 286 0.0 3.0 0.00 0.53 0.53 53 1023.7
20260905174304 72 277 0.0 2.0 0.00 0.53 0.53 52 1023.7
20260905173804 72 270 0.0 1.0 0.00 0.53 0.53 51 1023.7
20260905173304 72 310 0.0 5.0 0.00 0.53 0.53 51 1023.6
20260905172803 73 321 0.0 1.0 0.00 0.53 0.53 51 1023.6
20260905172305 73 2 0.0 1.0 0.00 0.53 0.53 52 1023.5
20260905171803 73 267 0.0 1.0 0.00 0.53 0.53 50 1023.5
20260905171303 73 177 0.0 1.0 0.00 0.53 0.53 50 1023.4
20260905170803 74 275 0.0 2.0 0.00 0.53 0.53 49 1023.4
20260905170304 74 326 2.0 8.0 0.00 0.53 0.53 48 1023.4
20260905165804 74 263 0.0 1.0 0.00 0.53 0.53 49 1023.0
20260905165306 75 297 0.0 2.0 0.00 0.53 0.53 48 1023.0
20260905164804 75 295 1.0 6.0 0.00 0.53 0.53 47 1023.0
20260905164304 76 9 2.0 7.0 0.00 0.53 0.53 46 1023.0
20260905163803 77 6 1.0 3.0 0.00 0.53 0.53 44 1023.0
20260905163304 78 291 1.0 5.0 0.00 0.53 0.53 44 1023.0
20260905162804 78 272 1.0 3.0 0.00 0.53 0.53 45 1023.0
20260905162306 78 334 1.0 5.0 0.00 0.53 0.53 44 1023.0
20260905161804 78 289 1.0 7.0 0.00 0.53 0.53 43 1023.0
20260905161304 78 286 1.0 5.0 0.00 0.53 0.53 43 1023.0
20260905160803 79 353 2.0 7.0 0.00 0.53 0.53 43 1023.0
20260905160304 79 301 2.0 7.0 0.00 0.53 0.53 41 1022.8
20260905155804 79 317 0.0 3.0 0.00 0.53 0.53 42 1022.8
20260905155306 79 304 1.0 7.0 0.00 0.53 0.53 41 1022.8
20260905154804 80 316 0.0 3.0 0.00 0.53 0.53 42 1022.8
20260905154303 80 261 0.0 5.0 0.00 0.53 0.53 41 1022.8
20260905153803 80 283 1.0 5.0 0.00 0.53 0.53 40 1022.8
20260905153304 80 264 0.0 6.0 0.00 0.53 0.53 41 1022.8
20260905152804 80 340 1.0 5.0 0.00 0.53 0.53 41 1022.6
20260905152306 80 301 1.0 7.0 0.00 0.53 0.53 42 1022.6
20260905151804 80 291 2.0 5.0 0.00 0.53 0.53 42 1022.6
20260905150804 81 353 2.0 5.0 0.00 0.53 0.53 43 1022.6
20260905150304 81 306 2.0 5.0 0.00 0.53 0.53 42 1022.6
20260905145804 81 291 2.0 6.0 0.00 0.53 0.53 43 1022.6
20260905145306 82 280 2.0 5.0 0.00 0.53 0.53 44 1022.5
20260905144303 81 256 1.0 5.0 0.00 0.53 0.53 44 1022.5
20260905143803 80 293 2.0 9.0 0.00 0.53 0.53 43 1022.5
20260905143304 81 263 3.0 9.0 0.00 0.53 0.53 43 1022.5
20260905142803 81 310 2.0 8.0 0.00 0.53 0.53 44 1022.6
20260905142305 81 290 1.0 8.0 0.00 0.53 0.53 45 1022.6
20260905141803 81 312 1.0 6.0 0.00 0.53 0.53 46 1022.6
20260905141304 81 259 2.0 8.0 0.00 0.53 0.53 47 1022.6
20260905140803 81 282 1.0 10.0 0.00 0.53 0.53 45 1022.6
20260905140304 81 284 2.0 6.0 0.00 0.53 0.53 44 1022.5
20260905135306 81 309 1.0 5.0 0.00 0.53 0.53 47 1022.5
20260905134804 81 308 0.0 10.0 0.00 0.53 0.53 48 1022.6
20260905134304 80 312 0.0 8.0 0.00 0.53 0.53 49 1022.6
20260905133803 80 284 2.0 8.0 0.00 0.53 0.53 47 1022.6
20260905133303 80 352 1.0 5.0 0.00 0.53 0.53 49 1022.7
20260905132803 80 290 1.0 3.0 0.00 0.53 0.53 49 1022.7
20260905132305 80 281 1.0 8.0 0.00 0.53 0.53 49 1022.7
20260905131804 80 289 1.0 6.0 0.00 0.53 0.53 50 1022.7
20260905131303 80 309 1.0 6.0 0.00 0.53 0.53 52 1022.7
20260905130803 80 300 1.0 5.0 0.00 0.53 0.53 53 1022.8
20260905130303 79 328 0.0 6.0 0.00 0.53 0.53 52 1022.8
20260905124804 78 304 2.0 5.0 0.00 0.53 0.53 54 1022.8
20260905124304 78 301 2.0 8.0 0.00 0.53 0.53 54 1022.8
20260905123804 79 277 1.0 5.0 0.00 0.53 0.53 56 1022.8
20260905123304 78 280 1.0 5.0 0.00 0.53 0.53 55 1022.8
20260905122804 78 4 1.0 9.0 0.00 0.53 0.53 55 1022.8
20260905121803 78 312 0.0 8.0 0.00 0.53 0.53 58 1022.7
20260905121304 78 343 2.0 5.0 0.00 0.53 0.53 53 1022.8
20260905120804 78 274 1.0 5.0 0.00 0.53 0.53 55 1022.8
20260905120304 78 274 0.0 3.0 0.00 0.53 0.53 54 1022.8
20260905115805 78 311 1.0 3.0 0.00 0.53 0.53 54 1022.8
20260905114304 78 328 1.0 3.0 0.00 0.53 0.53 56 1022.8
20260905113804 78 261 1.0 13.0 0.00 0.53 0.53 54 1022.8
20260905113304 77 259 0.0 3.0 0.00 0.53 0.53 58 1023.0
20260905112803 76 263 0.0 3.0 0.00 0.53 0.53 58 1023.0
20260905112305 76 241 0.0 2.0 0.00 0.53 0.53 58 1023.0
20260905111804 77 37 0.0 3.0 0.00 0.53 0.53 58 1023.0
20260905111304 77 242 2.0 6.0 0.00 0.53 0.53 58 1023.1
20260905110803 77 220 0.0 7.0 0.00 0.53 0.53 60 1023.1
20260905105804 78 279 1.0 5.0 0.00 0.53 0.53 61 1023.1
20260905105306 77 294 1.0 5.0 0.00 0.53 0.53 61 1023.1
20260905104804 77 1 1.0 9.0 0.00 0.53 0.53 61 1023.1
20260905104304 76 287 1.0 3.0 0.00 0.53 0.53 62 1023.0
20260905103803 76 344 1.0 6.0 0.00 0.53 0.53 63 1023.0
20260905102804 75 312 1.0 3.0 0.00 0.53 0.53 65 1023.1
20260905102306 73 323 1.0 5.0 0.00 0.53 0.53 67 1023.1
20260905101803 72 288 0.0 2.0 0.00 0.53 0.53 68 1023.1
20260905101304 73 292 0.0 5.0 0.00 0.53 0.53 67 1023.1
20260905100804 74 0 0.0 2.0 0.00 0.53 0.53 70 1023.1
20260905100303 74 287 0.0 5.0 0.00 0.53 0.53 69 1023.1
20260905095305 73 177 0.0 3.0 0.00 0.53 0.53 73 1023.1
20260905094803 72 32 1.0 3.0 0.00 0.53 0.53 72 1023.0
20260905094304 72 310 0.0 2.0 0.00 0.53 0.53 74 1023.0
20260905093804 72 5 0.0 6.0 0.00 0.53 0.53 73 1023.1
20260905093303 71 293 0.0 2.0 0.00 0.53 0.53 75 1022.4
20260905092804 72 259 0.0 2.0 0.00 0.53 0.53 74 1022.4
20260905091803 72 314 0.0 3.0 0.00 0.53 0.53 74 1022.4
20260905091305 71 211 0.0 1.0 0.00 0.53 0.53 76 1022.4
20260905090803 70 326 0.0 1.0 0.00 0.53 0.53 77 1022.4
20260905085804 70 277 0.0 3.0 0.00 0.53 0.53 80 1022.4
20260905085306 69 293 0.0 3.0 0.00 0.53 0.53 80 1022.4
20260905084804 69 252 0.0 1.0 0.00 0.53 0.53 82 1022.4
20260905084304 69 275 0.0 5.0 0.00 0.53 0.53 83 1022.4
20260905083804 69 323 0.0 1.0 0.00 0.53 0.53 84 1022.4
20260905083304 68 334 0.0 3.0 0.00 0.53 0.53 85 1022.4
20260905082804 68 275 0.0 3.0 0.00 0.53 0.53 85 1022.4
20260905081803 67 279 0.0 0.0 0.00 0.53 0.53 87 1022.4
20260905081304 67 358 0.0 2.0 0.00 0.53 0.53 87 1022.4
20260905080804 67 310 1.0 3.0 0.00 0.53 0.53 86 1022.4
20260905080304 66 159 0.0 0.0 0.00 0.53 0.53 90 1022.4
20260905075306 65 138 0.0 0.0 0.00 0.53 0.53 88 1022.4
20260905074804 65 138 0.0 0.0 0.00 0.53 0.53 90 1022.4
20260905074303 65 138 0.0 0.0 0.00 0.53 0.53 91 1022.4
20260905073804 64 138 0.0 0.0 0.00 0.53 0.53 94 1022.3
20260905072804 64 138 0.0 0.0 0.00 0.53 0.53 94 1022.0
20260905072306 64 138 0.0 0.0 0.00 0.53 0.53 97 1022.0
20260905071803 63 138 0.0 0.0 0.00 0.53 0.53 97 1022.0
20260905071303 63 138 0.0 0.0 0.00 0.53 0.53 97 1022.0
20260905070804 63 138 0.0 0.0 0.00 0.53 0.53 97 1022.0
20260905070304 62 138 0.0 0.0 0.00 0.53 0.53 97 1022.0
20260905065803 62 138 0.0 0.0 0.00 0.53 0.53 98 1021.8
20260905065306 62 138 0.0 0.0 0.00 0.53 0.53 99 1021.8
20260905064804 62 138 0.0 0.0 0.00 0.53 0.53 99 1021.8
20260905064304 62 138 0.0 0.0 0.00 0.53 0.53 99 1021.8
20260905063804 61 138 0.0 0.0 0.00 0.53 0.53 100 1021.8
20260905063303 61 138 0.0 0.0 0.00 0.53 0.53 99 1021.7
20260905062804 61 138 0.0 0.0 0.00 0.53 0.53 99 1021.7
20260905061803 61 138 0.0 0.0 0.00 0.53 0.53 100 1021.7
20260905061303 61 138 0.0 0.0 0.00 0.53 0.53 100 1021.7
20260905060804 61 138 0.0 0.0 0.00 0.53 0.53 100 1021.5
20260905055306 60 138 0.0 0.0 0.00 0.53 0.53 100 1021.2
20260905053803 60 138 0.0 0.0 0.00 0.53 0.53 100 1021.0
20260905053304 60 138 0.0 0.0 0.00 0.53 0.53 100 1021.0
20260905052804 60 138 0.0 0.0 0.00 0.53 0.53 100 1021.0
20260905051803 60 138 0.0 0.0 0.00 0.53 0.53 100 1021.0
20260905051304 60 138 0.0 0.0 0.00 0.53 0.53 100 1020.7
20260905050803 60 138 0.0 0.0 0.00 0.53 0.53 100 1020.7
20260905050303 60 138 0.0 0.0 0.00 0.53 0.53 100 1020.6
20260905045306 60 138 0.0 0.0 0.02 0.53 0.53 99 1020.2
20260905044803 60 138 0.0 0.0 0.03 0.53 0.53 100 1020.2
20260905044303 60 138 0.0 0.0 0.05 0.53 0.53 99 1020.2
20260905043804 60 138 0.0 0.0 0.06 0.53 0.53 100 1020.2
20260905042804 60 138 0.0 0.0 0.07 0.53 0.53 100 1020.2
20260905042307 60 137 0.0 0.0 0.08 0.53 0.53 100 1020.2
20260905041804 60 192 0.0 0.0 0.10 0.53 0.53 100 1020.2
20260905041304 60 192 0.0 0.0 0.13 0.53 0.53 99 1020.7
20260905040804 60 192 0.0 0.0 0.14 0.53 0.53 100 1020.7
20260905035803 60 355 0.0 0.0 0.20 0.53 0.53 100 1020.7
20260905035306 60 355 0.0 0.0 0.20 0.51 0.51 99 1020.7
20260905034804 60 355 0.0 0.0 0.20 0.50 0.50 99 1020.7
20260905034304 60 355 0.0 0.0 0.19 0.48 0.48 99 1020.7
20260905033803 60 355 0.0 0.0 0.20 0.47 0.47 98 1020.5
20260905033304 60 355 0.0 0.0 0.27 0.46 0.46 99 1020.5
20260905032306 60 355 0.0 0.0 0.36 0.45 0.45 98 1020.4
20260905031803 60 355 0.0 0.0 0.34 0.43 0.43 98 1020.4
20260905031304 61 355 0.0 0.0 0.33 0.40 0.40 97 1020.4
20260905030804 61 300 0.0 0.0 0.35 0.39 0.39 97 1020.4
20260905030304 61 284 0.0 1.0 0.35 0.35 0.35 97 1020.4
20260905025803 62 315 0.0 6.0 0.33 0.33 0.33 97 1020.1
20260905025306 62 315 0.0 6.0 0.31 0.31 0.31 97 1019.9
20260905024803 62 266 0.0 1.0 0.29 0.29 0.29 97 1019.9
20260905024303 63 15 0.0 5.0 0.29 0.29 0.29 96 1019.9
20260905023804 63 7 2.0 7.0 0.27 0.27 0.27 97 1019.2
20260905023304 64 254 2.0 5.0 0.20 0.20 0.20 98 1019.2
20260905022804 64 277 0.0 2.0 0.10 0.10 0.10 97 1019.2
20260905022306 64 250 0.0 1.0 0.09 0.09 0.09 97 1019.2
20260905021803 64 299 0.0 1.0 0.09 0.09 0.09 96 1019.2
20260905020804 66 341 0.0 5.0 0.04 0.04 0.04 91 1019.2
20260905015804 68 303 0.0 3.0 0.00 0.00 0.00 82 1018.6
20260905015306 68 311 0.0 8.0 0.00 0.00 0.00 81 1018.6
20260905014804 68 324 3.0 9.0 0.00 0.00 0.00 80 1018.6
20260905014304 69 333 2.0 10.0 0.00 0.00 0.00 79 1018.6
20260905013804 69 279 1.0 5.0 0.00 0.00 0.00 79 1018.6
20260905013303 69 288 0.0 3.0 0.00 0.00 0.00 78 1018.6
20260905012803 70 317 0.0 6.0 0.00 0.00 0.00 76 1018.5
20260905012306 70 32 0.0 5.0 0.00 0.00 0.00 75 1018.5
20260905011804 70 44 0.0 5.0 0.00 0.00 0.00 74 1018.5
20260905011304 70 294 0.0 3.0 0.00 0.00 0.00 74 1018.5
20260905010804 70 306 0.0 1.0 0.00 0.00 0.00 74 1018.5
20260905010304 70 260 1.0 3.0 0.00 0.00 0.00 74 1018.4
20260905005804 70 320 0.0 5.0 0.00 0.00 0.00 74 1018.4
20260905005306 70 283 0.0 3.0 0.00 0.00 0.00 74 1017.5
20260905004804 70 342 1.0 5.0 0.00 0.00 0.00 74 1017.5
20260905004304 70 318 0.0 3.0 0.00 0.00 0.00 74 1017.5
20260905003803 70 271 1.0 5.0 0.00 0.00 0.00 74 1017.5
20260905003303 71 288 1.0 3.0 0.00 0.00 0.00 73 1017.5
20260905002804 71 44 0.0 1.0 0.00 0.00 0.00 73 1017.5